Retour au catalogue

STARLINK-35481

ActifCommunicationsVLEO
NORAD 66247·PAYLOAD·🇺🇸 United States

Lancé Oct 29, 2025 depuis Cape Canaveral Space Force Station

Loading…

Prochains Passages (prochaines 24 heures)

TLE

FraisSource: CelesTrak SupGP

Époque: Sep 14, 2026, 22:36 UTC

1 66247C 25245P   26257.94215278 -.00047581  00000+0 -15303-2 0  2570
2 66247  53.1576 123.5577 0001318  85.3711 141.9528 15.31721833    17

Suivez STARLINK-35481 en temps réel avec AllMySat

Download on the App Store